Regional Weather Roundup
Issued by NWS

Home | Current Version | Previous Version | Text Only | Print | Product List | Glossary Off
Versions: 1 2 3 4 5 6 7 8 9 10 11 12 13 14 15 16 17 18 19 20 21 22 23 24 25 26 27 28 29 30 31 32 33 34 35 36 37 38 39 40 41 42 43 44 45 46 47 48 49 50

000
ASUS43 KDMX 170101
RWRIA

WEATHER ROUNDUP FOR IOWA
NATIONAL WEATHER SERVICE DES MOINES IA
800 PM CDT WED AUG 16 2017

NOTE: "FAIR" INDICATES FEW OR NO CLOUDS BELOW 12,000 FEET WITH NO
SIGNIFICANT WEATHER AND/OR OBSTRUCTIONS TO VISIBILITY.

* - THESE STATIONS ARE NOT NWS STATIONS...THUS NOT UNDER NWS
QUALITY CONTROL.  THEY ALSO DO NOT REPORT WEATHER SUCH
AS PRECIPITATION OR FOG.

IAZ001>003-012>014-020>022-031>034-043>046-170200-
   NORTHWEST IOWA

CITY           SKY/WX    TMP DP  RH WIND       PRES   REMARKS
CARROLL *      MOCLDY    72  70  94 W10       29.75R
CHEROKEE *     CLOUDY    68  67  97 W13       29.73S
DENISON *      CLOUDY    72  66  83 W10       29.78R
LE MARS *      CLOUDY    70  64  83 W13G20    29.73F
ORANGE CITY *  CLOUDY    68  66  94 W14G21    29.73R
SHELDON *      CLOUDY    68  64  88 W14G23    29.69R
SIOUX CITY     LGT RAIN  70  66  87 NW10      29.75F FOG
SPENCER        CLOUDY    69  66  90 W16G25    29.68R
STORM LAKE *     N/A     70  66  88 W12G22    29.73
$$

IAZ055>058-069>071-079>083-090>094-170200-
   SOUTHWEST IOWA

CITY           SKY/WX    TMP DP  RH WIND       PRES   REMARKS
ATLANTIC *     CLEAR     75  66  73 MISG      29.78R
AUDUBON *      LGT RAIN  73  68  83 W7        29.78R
CLARINDA *     CLOUDY    77  68  73 W7        29.81R
COUNCIL BLFS * PTCLDY    73  68  83 NW8G14    29.79S
CRESTON *      CLOUDY    77  66  69 SW8       29.80R
HARLAN  *      PTCLDY    72  68  88 W7        29.81R
LAMONI         CLOUDY    79  69  71 SW7       29.79R HX  81
RED OAK *      CLEAR     77  68  73 W5        29.79R
SHENANDOAH *   CLOUDY    77  68  73 SW5       29.79S
$$

IAZ047>049-059>061-072>074-084-170200-
   CENTRAL IOWA

CITY           SKY/WX    TMP DP  RH WIND       PRES   REMARKS
AMES           CLOUDY    77  69  76 SW10      29.72R
ANKENY *       CLOUDY    81  66  61 SW13G22   29.75R HX  83
BOONE *        PTCLDY    77  66  69 SW10G17   29.73R
CHARITON *     PTCLDY    81  68  65 W8G15     29.78R HX  83
DES MOINES     CLOUDY    81  64  56 SW15      29.74R HX  82
GRINNELL*      PTCLDY    78  70  76 S7        29.76R HX  80
KNOXVILLE *    PTCLDY    81  68  65 SW8       29.75R HX  83
MARSHALLTOWN   MOCLDY    79  71  76 S10       29.72R HX  82
NEWTON *       CLOUDY    79  70  73 SW8       29.75R HX  81
PELLA *        PTCLDY    81  67  62 S6        29.77R HX  84
PERRY *          N/A     77  69  76 SW10      29.74R
$$

IAZ004>006-015-016-023>025-035-036-170200-
   NORTH CENTRAL IOWA

CITY           SKY/WX    TMP DP  RH WIND       PRES   REMARKS
ALGONA *       CLOUDY    75  68  78 SW17G23   29.67S
CLARION *      PTCLDY    75  70  83 SW14      29.70R
ESTHERVILLE    CLOUDY    70  68  93 SW16G25   29.64S
FORT DODGE *   PTCLDY    73  64  73 SW12G20   29.72R
MASON CITY     CLEAR     73  71  93 S7        29.69F
FOREST CITY *    N/A     73  72  94 S7        29.67F
WEBSTER CITY * MOCLDY    77  68  73 SW9       29.70R
IOWA FALLS *     N/A     77  71  82 S8        29.73R
$$

IAZ007>011-017>019-026>030-037>042-050>054-066-170200-
   NORTHEAST IOWA

CITY           SKY/WX    TMP DP  RH WIND       PRES   REMARKS
CEDAR RAPIDS   PTCLDY    77  72  84 S6        29.75R
CHARLES CITY * MOCLDY    75  75 100 S8        29.71S
CLINTON *      CLOUDY    78  73  84 S9        29.81R HX  81
DECORAH *      CLOUDY    73  72  94 SE9G17    29.73S
DUBUQUE        CLEAR     75  73  93 S12       29.78F
MONTICELLO *   PTCLDY    77  73  88 S7        29.76R
OELWEIN *      MOCLDY    77  73  88 S12       29.74S
WATERLOO       MOCLDY    79  70  74 S12       29.71R HX  82
$$

IAZ064-065-067-068-078-170200-
   EAST CENTRAL IOWA

CITY           SKY/WX    TMP DP  RH WIND       PRES   REMARKS
DAVENPORT      PTCLDY    79  71  76 S14G22    29.81S HX  82
IOWA CITY      PTCLDY    81  73  76 S10       29.77R HX  86
MUSCATINE *    CLOUDY    81  72  74 S12G17    29.78R HX  84
QUAD CITIES    CLOUDY    79  72  79 S8        29.79S HX  82
$$

IAZ062-063-075>077-085>089-095>099-170200-
   SOUTHEAST IOWA

CITY           SKY/WX    TMP DP  RH WIND       PRES   REMARKS
BURLINGTON     PTCLDY    79  74  84 S12       29.80S HX  82
FAIRFIELD *    PTCLDY    81  72  74 S13       29.78R HX  84
FORT MADISON * PTCLDY    79  73  83 S9        29.83R HX  82
KEOKUK *       CLEAR     79  72  78 S13       29.82R HX  82
OSKALOOSA *      N/A     80  70  72 S8        29.78R HX  83
OTTUMWA        CLOUDY    82  70  66 S10       29.77R HX  86
WASHINGTON *   PTCLDY    79  73  83 S9G16     29.79R HX  82
$$

ABBREVIATIONS USED IN REMARKS
   TC - TEMPERATURES IN CELSIUS
  WCI - WIND CHILL INDEX
   HX - HEAT INDEX
  VSB - VISIBILITY
$$





USA.gov is the U.S. government's official web portal to all federal, state and local government web resources and services.